CAPE
2304 2408 2704 2853 2847 2790 2788 2791 2609 2649 2677 3068 2952 2837 2643 2797 2452 2555 2784 2770 2645 2255 2488 2205 2464 2640 2512 2562 2706 2641 2487 2427 2380 2232 2114 2076 1853 2137 2502 2325 2162 1947 1864 1919 2004 2179 2133 2043 2032 2151 2149 1933 1763 1763 1740 1802 1891 1958 1901 1891 1860 1869 1808 1749 1623 1625 1744 1601 1706 1636 1469 1434 1404 1485 1501 1501 1398 1435 1299 1457 1678 1885 1644 1833 1605
2284 2520 2563 2847 2920 2911 2844 2890 2849 2841 2767 2959 3217 2853 2844 2426 2672 2800 2777 2636 2372 2309 2408 2225 2122 2288 2609 2422 2496 2484 2627 2520 2481 2359 2272 2105 2007 1713 2553 2337 2116 1637 1673 1780 1659 1798 2139 2047 1832 2066 1830 1911 1817 1893 1686 1639 1710 1552 1631 1737 1698 1826 1851 1852 1822 1767 1530 1501 1495 1488 1397 1347 1360 1410 1498 1440 1417 1558 1487 1364 1783 1734 1809 1740 1604
2505 2620 2719 2958 2917 2840 2750 2799 2833 3026 3091 2996 3034 2975 2850 2894 2707 2620 2764 3019 2945 2525 2613 2642 2698 2380 2446 2459 2436 2510 2576 2501 2226 2242 2099 2353 1945 1648 1926 2336 2167 1964 1886 1821 1916 1965 2179 1910 2000 1815 1856 1772 1771 1939 1914 1835 1538 1720 1716 1436 1466 1611 1458 1731 1740 1545 1496 1478 1492 1448 1387 1354 1311 1342 1453 1470 1557 1499 1744 1645 1668 1460 1701 1487 1567
2938 2973 2850 3015 2932 2823 2737 2760 2592 2864 3002 3004 2937 2765 2771 3004 3114 3097 3071 3048 2862 2994 2778 2692 2504 2329 2593 2578 2431 2423 2590 2461 2013 2129 2170 2447 2168 1669 1632 1974 2192 2184 2283 2058 2156 2206 1988 1654 1750 1918 1833 1880 1809 1708 1756 1852 1652 1693 1776 1571 1374 1732 1534 1405 1556 1596 1562 1394 1432 1600 1387 1313 1293 1303 1474 1528 1616 1657 1589 1450 1616 1740 1603 1696 1690
3446 3298 3183 3122 3110 3202 2842 2881 2785 3216 3098 3495 3426 3021 2298 2462 2524 2591 2825 2840 2682 2920 3018 2368 2166 2339 2235 2154 2147 2354 2579 2480 2339 2178 2060 2223 2145 1739 1430 1909 2132 2314 2172 1994 2094 2132 1907 1924 1882 1797 1859 1672 1632 1647 1875 1962 1786 1644 1732 1787 1643 1647 1606 1463 1541 1516 1483 1308 1432 1421 1364 1204 1237 1461 1447 1481 1503 1456 1562 1540 1404 1432 1667 1666 1591
3417 3569 3311 3082 3113 3269 3124 2956 3108 3372 3328 3715 3008 2197 1904 1875 1698 2067 2227 2697 2694 2838 2652 2368 2100 2113 1967 2098 2245 2524 2554 2289 2290 2182 2184 2036 2076 1892 1679 1683 2046 2428 2778 2299 2256 2139 2038 2026 2124 1951 1883 1743 1705 1832 1816 1724 1832 1908 1885 1624 1591 1762 1816 1744 1659 1586 1743 1625 1311 1341 1361 1330 1300 1395 1354 1354 1472 1675 1692 1689 1311 1316 1594 1692 1589
3440 3460 3356 3200 2953 2995 3208 3139 3350 3362 3092 3617 3302 1847 1534 1516 1666 2159 2249 2534 2522 2683 2821 2138 1642 1708 1945 2167 2170 2657 2566 2469 2455 2324 2284 2396 2143 1593 1635 1797 1851 2317 2469 2671 2456 2306 2315 2178 2057 2092 2116 2017 1864 1864 1932 1785 1900 1994 1910 1918 1753 1650 1814 1784 1714 1720 1668 1565 1600 1689 1711 1720 1749 1627 1643 1507 1372 1272 1488 1364 1286 1452 1600 1716 1716
3310 3521 3403 3200 2942 2950 3167 3509 3678 3344 3536 3619 3152 1938 1882 1966 1842 2010 2396 2448 2783 2262 1841 1905 1697 1413 1553 1702 2176 2525 2666 2664 2607 2170 2069 2180 1940 1616 1630 1802 1992 2182 2178 1921 1873 2030 2444 2291 2257 2222 2235 2270 2086 1839 1808 1903 1844 1793 1836 1708 1705 1740 1766 1765 1740 1705 1644 1540 1588 1678 1712 1492 1484 1449 1444 1460 1353 1351 1347 1396 1414 1419 1423 1484 1508
3200 3497 3443 3354 3199 3081 3153 3436 3466 3255 3830 3622 2956 2921 1948 2066 2134 2044 2179 2588 2402 1598 1120 1572 1436 1466 1329 1758 2088 2484 2528 2723 2468 2322 2517 2345 2056 1397 1555 1745 1971 2067 2229 2106 1941 1741 2157 2260 2375 2318 2279 2269 2152 2033 1865 1965 1983 1947 1872 1723 1804 1861 1894 1854 1773 1792 1773 1633 1770 1772 1744 1835 1625 1462 1480 1633 1498 1362 1477 1361 1336 1439 1419 1308 1318
3151 3390 3505 3354 3244 3200 3181 3425 3263 3593 3692 3314 3089 2959 3222 2562 1985 2437 3260 3531 2464 1769 984 1122 1296 1247 1740 1933 2427 2402 2420 2584 2600 2686 2460 2284 2140 1637 1280 1311 1486 1480 1681 1928 1857 1903 1834 1949 2222 2236 2276 2285 2283 2321 2340 2006 2070 1850 1939 2015 1914 1792 1836 1771 1808 1854 1861 1827 1797 1722 1670 1789 1475 1624 1567 1420 1312 1477 1394 1284 1410 1310 1245 1161 1264
3194 3445 3437 3355 3350 3385 3159 3404 3268 3626 3708 3167 3046 3215 3588 3122 3186 3388 3572 3173 2097 1326 1200 1339 1668 1564 1521 1842 2300 2416 2339 2390 2543 2494 2133 1699 1577 1730 1399 1442 1432 1598 1767 1899 1952 1890 1845 1746 1720 1742 1693 2334 2390 2309 2305 2096 1769 2018 2033 1866 1882 1809 1696 1650 1646 1650 1827 1803 1676 1642 1626 1586 1438 1405 1335 1241 1297 1456 1356 1310 1310 1194 1144 1059 995
3223 3380 3464 3580 3426 3355 3369 3350 3370 3594 3693 2983 2965 3092 3484 2988 3088 2831 3346 2063 1067 1140 1342 1551 1446 1728 1722 1728 1853 2074 2329 2418 2336 2121 2160 2012 1939 1966 1669 1700 1519 1577 1667 1901 1815 1682 1847 2008 2127 1891 1695 2054 2187 2425 2287 2267 2215 2035 1991 1935 1828 1793 1890 1880 1902 1571 1740 1652 1635 1581 1604 1450 1384 1452 1326 1376 1361 1276 1172 1222 1278 1125 956 868 880
3120 3356 3358 3602 3477 3542 3458 3366 3433 3440 3644 3330 3316 3504 3788 2977 2887 3273 3009 2380 1286 898 951 1161 1520 1320 1587 1102 1436 1495 1751 2194 1828 1485 1523 1767 1890 2091 2118 1762 1595 1622 1730 1753 1893 1828 1796 2143 2314 2184 1943 1828 1912 2295 2271 2320 2304 2226 2298 2088 1909 1927 1946 1872 1950 1802 1738 1621 1752 1523 1517 1539 1535 1412 1400 1354 1247 1126 1129 1089 1031 862 805 640 821
3099 3417 3480 3566 3792 3412 3529 3576 3636 3593 3815 3848 3772 3572 3884 3250 3529 3302 3007 2375 1360 527 813 1059 862 432 305 412 708 1029 1539 1376 1257 1187 1185 1281 1478 1807 1998 1616 1366 1477 1658 1841 2077 2019 1820 1817 2233 2072 2189 1870 1602 1539 1989 1815 1944 2234 2307 2254 2154 1937 1849 1714 1672 1671 1786 1681 1522 1455 1418 1558 1475 1498 1370 1278 1218 1126 976 961 800 746 493 555 675
3087 3285 3423 3468 3484 3459 3493 3752 3588 3662 3914 3878 3913 3749 3798 3786 3630 3267 3121 2474 1370 734 964 817 286 869 1233 656 550 308 1148 972 844 925 941 932 1104 1073 1335 1173 1368 1621 2056 2028 1848 1994 1799 1797 1949 2262 2344 2172 1725 1728 1786 1831 2051 2149 2219 2200 2187 2168 2114 1914 1710 1684 1732 1628 1680 1482 1437 1595 1566 1450 1304 1131 1114 1085 954 813 760 558 449 337 460
2946 3094 3240 3276 3452 3368 3352 3447 3872 3807 3862 3837 3836 3788 3780 3824 3594 3328 2947 2117 1032 667 592 676 795 865 372 512 510 220 37 499 721 913 638 782 807 778 1133 1295 1428 2643 2378 2020 1612 1822 2033 2018 2064 2366 2366 2331 2051 2014 2010 2030 2182 2209 2210 2125 2227 2291 2195 2009 2010 1888 1728 1763 1695 1581 1564 1571 1526 1447 1340 1247 1104 952 853 723 622 491 359 419 416
2913 3117 3037 3302 3391 3386 3343 3363 3699 3981 3793 3662 3783 3413 3741 3648 3693 3425 3207 2006 1185 653 1042 464 676 1394 587 444 361 468 58 110 18 832 437 446 525 572 1035 1580 1640 2614 2182 1948 2621 2380 2147 2177 2535 2528 2648 2621 2525 2317 2128 2279 2171 2334 2155 2076 1936 2256 2280 2058 1910 1871 1708 1808 1811 1726 1611 1600 1488 1389 1176 1094 850 653 387 486 457 553 397 465 493
2986 3111 2991 3151 3367 3310 3340 3154 3299 3576 3670 3183 3283 3928 3928 3589 3511 3406 3237 2851 2032 1160 492 1108 575 1108 1440 549 168 38 33 293 42 403 1112 530 944 1210 1279 1074 2060 2181 2640 2432 2166 2486 2349 2242 2831 2770 2799 2490 2402 2292 2365 2518 2513 2360 2515 2395 2143 2020 2026 2102 1904 1765 1845 1339 1428 1537 1572 1623 1415 1338 981 693 524 481 539 607 601 583 590 439 304
2709 2988 3063 3203 3251 3290 3251 3205 3078 3129 3288 3357 3451 3244 2947 3427 3590 3371 3404 3113 2401 1746 1280 805 983 785 473 163 432 763 243 207 383 417 402 1507 605 468 836 1183 1298 1653 1596 1608 1065 1368 1938 2432 2516 2399 2769 2789 2416 2451 2412 2377 2305 2134 2179 2056 2150 2133 1991 2037 1865 1770 1685 1415 1164 1279 1202 1155 1511 1344 873 700 683 629 675 641 610 692 601 478 270
2822 3216 3256 3253 3285 3295 3212 3135 3191 2958 3288 3274 2931 2833 3137 3480 3625 3714 3866 3470 2675 2018 1541 1038 763 1045 620 656 461 1085 854 334 327 323 455 377 820 691 392 490 725 784 946 1142 1035 1033 1144 2188 1859 2488 2797 2841 2706 2462 2076 2184 2405 2695 2475 2265 2165 2137 2003 2047 1996 1762 1466 1555 1292 1171 1149 1173 1084 997 971 929 779 796 797 825 614 620 718 510 270
3168 3170 3358 3280 3313 3327 3320 3273 3248 3252 3177 3002 3030 2852 3376 3414 3612 3637 3553 3584 3021 2576 2313 2010 947 579 991 1052 796 785 796 663 965 602 579 540 386 393 598 729 637 675 752 792 1071 1250 1318 1967 2060 1972 2370 2626 2667 2590 2092 2016 2261 2574 2712 2220 1906 1966 1938 2002 1936 1708 1562 1501 1543 1416 1293 1225 1132 1142 1188 1109 1036 936 813 689 642 510 499 447 236
3242 3406 3489 3400 3390 3412 3315 3199 3227 3028 3059 2744 3028 3213 3484 3598 3566 3463 3631 3593 3197 2914 2628 2390 1887 1359 1015 1355 1172 1040 740 776 686 639 614 628 348 251 282 358 596 1017 946 708 728 757 863 1057 1530 1673 1962 2552 2764 2791 2477 2199 2265 2179 2173 2110 1962 1969 1963 1986 1853 1736 1675 1630 1567 1518 1458 1287 1298 1272 1320 1309 1193 981 811 637 570 510 281 181 211
2993 3281 3373 3395 3375 3415 3151 3108 3053 3161 3247 3227 3331 2940 3103 3313 3419 3616 3607 3426 3232 3203 2906 2720 2467 2153 1649 1397 1257 736 592 396 569 746 477 587 640 358 280 424 388 429 1188 844 1077 793 890 1069 1309 1034 1788 1967 2494 2808 2742 2525 2338 2047 2157 1873 1702 1770 1890 1956 1886 1721 1633 1557 1547 1577 1595 1587 1533 1446 1367 1286 1141 1085 869 658 459 549 509 264 209
3313 3139 3258 3012 3362 3467 3312 3216 3246 3238 3278 3380 3134 3022 2794 3128 3408 3567 3497 3534 3399 3255 3142 2894 2500 2409 1960 1365 1338 852 501 442 134 560 723 633 650 549 530 786 777 698 745 1660 1298 810 984 852 1105 1058 1819 1870 2364 2678 2868 2774 2516 1989 2141 1944 1639 1592 1723 1864 1948 1868 1620 1465 1370 1372 1542 1648 1680 1671 1491 1219 1225 1210 1113 565 348 524 510 476 447
3189 3080 3139 3251 3376 3551 3500 3450 3453 3295 3263 3433 3520 3550 3332 3337 3587 3608 3452 3438 3385 3379 3222 3090 2869 2396 1955 1511 1295 1072 698 688 381 213 239 686 811 739 577 524 550 569 1135 764 689 998 971 996 992 1396 1702 2419 2258 2830 2815 2733 2315 2491 1885 1690 1599 1675 1475 1641 1711 1681 1652 1494 1388 1383 1124 1292 1432 1424 1463 1290 1183 999 822 600 395 406 520 605 631
2855 3111 3015 3178 3285 3480 3627 3580 3646 3590 3504 3552 3554 3656 3600 3318 3409 3517 3418 3602 3460 3438 3409 3117 3161 3109 2632 2144 1633 1298 1236 984 793 693 418 305 535 515 775 1127 738 515 1133 1189 1534 629 901 1292 1261 2063 2140 2319 2092 2622 2925 2120 2090 2220 1825 1720 1987 1512 1483 1419 1475 1477 1454 1485 1352 1305 1272 1234 1343 1379 1358 1259 1148 922 712 661 555 532 642 833 954
2917 3279 3333 3344 3461 3536 3585 3540 3626 3686 3602 3492 3412 3534 3612 3375 3204 3278 3310 3386 3318 3210 3265 3293 3265 3223 2904 2661 2308 1822 1659 1556 1011 801 640 487 368 516 892 859 606 661 1080 1517 1362 990 598 714 1213 1133 2199 2594 2411 2600 2792 2424 1818 2018 1914 1988 2032 2011 1324 1270 1324 1324 1364 1338 1306 1261 1252 1218 1224 1266 1367 1342 1170 962 801 763 762 821 872 1014 1088
3152 3279 3308 3198 3403 3474 3512 3412 3578 3516 3553 3578 3545 3456 3642 3272 3083 3032 3137 3191 3087 3137 3190 3226 3260 3479 3170 2938 2643 2270 1944 1686 1291 1222 1055 700 582 698 863 894 894 802 993 1324 1280 1298 980 758 1099 1177 1794 2176 2312 2392 2230 1838 1832 1705 1882 1890 2158 2314 1687 1146 1098 1138 1180 1206 1202 1181 1141 1145 1061 1079 1096 1164 1224 1061 929 847 855 929 946 983 962
2995 2987 3052 3163 3285 3382 3373 3296 3535 3517 3459 3560 3534 3604 3809 3485 3023 3059 2960 3199 3152 3078 3017 3095 3466 3218 3264 3121 2932 2693 2527 2083 1647 1730 1707 1343 978 1023 873 729 1023 965 946 1191 1449 1405 1316 442 512 2375 1376 1883 2377 1930 1953 2205 1761 1556 2058 2141 2113 2502 2219 1362 954 920 945 1004 1033 1033 1006 945 873 797 815 865 881 932 1050 948 842 820 825 764 748
2561 2562 2799 3023 3184 3244 3313 3473 3477 3446 3381 3330 3530 3623 3753 3455 3126 3044 2997 3148 3135 3107 3044 3126 3296 3401 3305 3028 2612 2680 2488 2144 2017 2059 2051 1884 1367 1281 1187 1096 1204 932 1023 1095 1205 1328 1312 1222 626 855 1957 1880 1706 2022 2004 2151 1578 1589 1830 2094 2220 2244 1772 1387 1057 822 759 786 832 836 837 802 743 665 571 488 481 545 676 782 836 778 737 674 699
2575 2681 2854 2704 2905 3106 3229 3294 3441 3470 3517 3374 3608 3523 3365 3169 2911 2890 2915 2908 2896 3003 3209 3100 3157 3361 3532 3317 2996 2776 2632 2268 2190 2127 2269 2279 2088 1523 1348 1358 1264 1026 1095 1258 1056 1238 912 888 1018 468 737 1356 657 862 1446 1621 1595 1150 1463 1903 2198 1775 1273 1440 936 740 622 576 579 619 626 613 580 493 234 192 177 213 305 433 547 618 685 671 705
2155 2504 2544 2522 2683 2727 2841 2805 2808 3042 3316 3343 3428 3516 3362 3074 2936 2836 2986 2952 2925 3094 3210 3257 3149 3415 3708 3570 3478 3271 2951 2610 2364 2329 2337 2372 2362 2336 2162 1651 1364 1282 1289 1270 1191 1130 1512 928 876 1171 1166 958 1364 1023 1205 1264 1246 825 1317 1567 2023 1396 1372 1355 945 616 488 413 172 404 405 409 90 60 81 86 92 123 194 230 248 304 364 449 553
1985 2156 2393 2529 2669 2716 2592 2747 2705 2962 3341 3326 3413 3539 3395 3069 2896 2970 3020 2933 2950 3076 3318 3460 3337 3240 3328 3606 3682 3577 3327 2976 2758 2462 2338 2395 2397 2412 2382 2333 2158 1604 1303 1278 1229 1268 1530 1459 1061 954 1017 1184 748 1388 1267 1275 1515 1593 836 1210 1553 1574 1494 1448 1452 964 513 68 8 2 2 0 0 7 22 37 35 53 96 150 148 111 115 139 178
1979 1930 2218 2322 2594 2650 2550 2737 2965 3041 3414 3592 3368 3434 3421 3270 3140 2918 2858 2969 3067 2896 3097 3254 3397 3325 3157 3162 3444 3672 3528 3224 2984 2787 2625 2202 2149 2182 2233 2288 2243 2157 1931 1406 1421 1368 1268 1605 1666 1481 1242 1310 1002 1376 1364 1156 1071 1628 1704 1330 1326 1464 1427 1378 1362 1382 803 451 4 0 0 0 0 0 0 2 4 7 9 13 18 14 10 6 1
1972 1884 2057 2099 2528 2701 2650 2761 3071 3124 3338 3369 3300 3340 3443 3522 3460 3286 3155 3152 3109 3137 3186 3338 3511 3619 3268 3090 3232 3388 3219 3223 3146 3012 2804 2583 2401 2242 2140 2106 1980 2011 1939 1869 1711 1501 1584 1677 1731 1462 1220 1529 1226 1000 1350 1458 1274 1345 1536 1534 1339 1306 1417 1256 1167 1080 773 509 164 0 0 0 0 0 0 0 0 0 0 0 0 0 0 0 0
1871 1995 1997 2124 2538 2860 2758 2829 3040 3080 3156 3206 3216 3312 3468 3523 3579 3666 3574 3409 3390 3434 3524 3614 3629 3631 3365 3512 3428 3305 3164 3141 3411 3360 3092 2802 2638 2531 2428 2371 2245 2064 2014 1997 1864 1791 1656 1689 1909 1835 1631 1522 1462 1429 1361 1160 998 948 1163 1101 1264 1348 1271 1270 1247 1122 904 515 313 279 267 0 0 0 0 0 0 0 0 0 0 0 0 0 0
1766 1987 2116 2226 2483 2723 2510 2708 2899 2971 2994 3126 3212 3029 3143 3314 3424 3437 3587 3718 3701 3672 3629 3713 3657 3693 3708 3658 3510 3508 3271 3092 3328 3485 3322 3160 2878 2636 2579 2552 2385 2264 2047 1947 1942 1758 1635 1692 1859 1990 1958 1821 1602 1391 1218 1150 1170 1346 1597 1519 1194 1196 1539 1249 932 944 680 526 249 212 0 0 86 68 0 0 0 0 0 0 0 0 0 0 0
1798 1857 2099 2142 2232 2541 2516 2580 2791 2977 3033 3108 3212 3186 2939 3144 3313 3314 3412 3616 3542 3638 3644 3599 3678 3698 3599 3656 3645 3603 3494 3347 3459 3528 3477 3064 2958 3005 2873 2760 2628 2426 2288 2193 2032 1926 1863 1846 1910 1974 2085 1947 1902 1846 1714 1539 1377 1172 1163 1436 1794 1725 1498 1339 1064 1009 977 938 881 750 600 458 343 0 0 0 0 0 0 0 0 0 0 0 0
1844 1868 1911 2166 2264 2359 2589 2638 2632 2907 3048 3083 3217 3247 3205 3187 3307 3428 3221 3371 3461 3496 3552 3420 3371 3452 3522 3531 3596 3665 3612 3603 3573 3570 3584 3428 3132 3223 3135 3062 2870 2671 2483 2419 2239 2170 2093 2036 2022 2014 2030 1962 1811 1790 1599 1512 1477 1468 1376 1345 1383 1567 2068 1865 1660 1426 1446 1429 1300 1213 1053 901 712 552 392 217 0 0 0 0 0 0 0 0 0
1840 1905 1927 2022 2271 2345 2421 2583 2687 2814 3058 3096 3162 3278 3276 3220 3243 3325 3354 3245 3262 3389 3453 3434 3327 3231 3317 3371 3304 3462 3636 3688 3649 3669 3636 3552 3511 3172 3083 2973 2898 2508 2379 2514 2294 2269 2220 2096 2076 2124 2121 2095 2105 1962 1790 1713 1728 1737 1752 1814 1837 1874 1900 1855 1880 1901 1859 1818 1707 1605 1456 1294 1162 949 763 570 381 157 0 0 0 0 0 0 0
1848 1905 1976 1985 2176 2345 2356 2524 2677 2748 2870 2992 2976 3160 3188 3264 3234 3130 3286 3339 3328 3346 3439 3358 3342 3386 3332 3246 3236 3332 3453 3560 3097 3022 3122 3187 3414 3408 3414 3131 2961 2775 2482 2389 2521 2548 2547 2488 2484 2195 1886 1920 1930 2048 2117 2211 2280 2296 2125 2197 2201 2279 2352 2309 2184 2171 2155 2102 2066 1964 1821 1726 1560 1364 1252 1117 885 626 417 159 0 0 0 0 0
1993 1994 2000 2073 2098 2243 2378 2547 2722 2780 2828 2891 2813 2483 2587 3061 3251 3105 3161 3347 3384 3302 3406 3492 3341 3300 3338 3331 3161 3164 2881 2778 2628 2501 2394 2334 2305 2599 3216 3449 3281 3208 2999 2886 2863 2822 2796 2663 2442 2390 2249 2219 2343 2453 2548 2521 2350 2283 2271 2188 2297 2385 2431 2433 2418 2366 2266 2250 2240 2241 2195 2090 2094 2051 1958 1766 1502 1291 1072 857 660 252 0 0 0
2066 2148 2144 2092 2092 2090 2214 2298 2488 2593 2671 2716 2452 2236 2116 2102 2642 3175 3245 3338 3451 3418 3350 3465 3476 3271 3247 3386 3496 3400 2860 2460 2368 2358 2345 2309 2306 2306 2314 2329 2368 2980 3031 3140 3140 3125 3040 2630 2633 2524 2493 2536 2562 2605 2597 2633 2561 2419 2210 2060 2048 2095 2279 2400 2493 2425 2214 2056 1964 2059 2067 2036 2104 2130 2081 1966 1877 1768 1590 1427 1219 1008 716 204 0
2304 2221 2263 2156 2220 2079 2052 2164 2252 2397 2533 2315 2165 2032 1947 1927 1944 2596 2950 3113 3097 3194 3281 3155 3252 3321 3354 3245 3276 3353 3422 3512 3514 3281 2597 2370 2333 2327 2338 2367 2392 2412 2469 2766 2971 3091 3214 3206 3168 2978 2792 2626 2639 2675 2674 2600 2518 2294 2115 2106 2320 2471 2489 2482 2414 2339 2269 2173 2209 2069 1917 1850 1710 1677 1603 1608 1553 1622 1710 1787 1848 1675 1371 1090 758
2255 2345 2290 2183 2251 2260 2191 2315 2267 2263 2403 2162 1964 1824 1789 1766 1837 1942 2524 2778 2928 3039 3161 3226 3192 3264 3419 3424 3352 3223 3333 3043 3164 3313 3585 3442 2950 2692 2484 2455 2474 2520 2596 2643 2659 2680 2712 2725 2712 2816 2844 2738 2594 2564 2573 2514 2299 2240 2473 2518 2417 2285 2271 2334 2327 2292 2198 1993 1875 1933 1993 1953 1763 1863 1912 1868 1784 1839 1738 1593 1687 1752 1743 1652 1370
2341 2375 2243 2302 2345 2444 2383 2393 2483 2397 2339 2230 2003 1804 1675 1651 1679 1722 2294 2509 2751 2925 3020 3096 3186 3266 3394 3484 3444 3422 3539 3657 3544 3431 3632 3704 3880 3572 3186 2954 2759 2676 2683 2688 2727 2744 2729 2661 2621 2560 2477 2443 2476 2476 2329 2337 2576 2545 2488 2468 2431 2336 2398 2363 2288 2158 2094 1746 1638 1658 1815 1806 1618 1613 1626 1508 1428 1408 1321 1446 1524 1530 1506 1670 1716
2404 2404 2332 2316 2366 2408 2412 2330 2407 2411 2254 2053 2017 1875 1724 1650 1630 1660 2043 2436 2608 2816 2935 3087 3243 3248 3294 3430 3522 3521 3575 3688 3580 3572 3617 3770 3678 3555 3562 3466 3504 3517 3160 3037 2971 2914 2820 2687 2632 2565 2446 2431 2507 2600 2701 2521 2410 2397 2333 2235 2135 2144 2142 2236 2153 2019 1980 1733 1343 1408 1235 1310 1187 1082 1114 1105 1139 1066 1001 974 913 1015 1318 1503 1555
2253 2263 2400 2303 2338 2410 2395 2343 2211 2247 2231 1778 1752 1747 1724 1692 1674 1683 1806 2468 2693 2742 2905 3092 3198 3323 3398 3406 3480 3600 3711 3658 3483 3240 3140 3510 3558 3416 3398 3292 3430 3541 3679 3291 3125 3049 3060 3014 2967 2870 2884 2933 2910 2748 2554 2345 2244 2353 2438 2452 2328 2242 2130 1953 1975 1941 1876 1798 1379 1155 1098 1248 1256 1070 1200 1229 1152 1142 1109 1082 746 652 596 761 1150
2289 2315 2380 2357 2402 2401 2390 2376 2362 2338 2350 2044 1657 1508 1460 1486 1539 1573 1884 2363 2640 2748 2841 2981 3154 3218 3327 3475 3550 3534 3504 3634 3487 3222 2930 2696 3455 3271 3251 3318 3384 3543 3281 4468 3170 3183 3222 3268 3219 3088 3081 2995 2812 2676 2441 2321 2520 2481 2398 2247 2157 1805 1684 1640 1666 1648 1682 1579 1443 1448 1297 1241 1174 1232 1026 1027 988 858 982 981 1046 664 581 538 532
2312 2418 2450 2455 2468 2499 2410 2430 2390 2480 2437 2339 1890 1673 1527 1404 1345 1600 2165 2396 2570 2720 2803 2957 3092 3224 3286 2872 3115 3356 3456 3506 3192 3009 2801 2622 3080 3188 3091 3287 3450 3519 3285 3609 3355 3328 3316 3265 3080 2982 2852 2642 2543 2720 2851 2806 2547 2289 2040 1833 1392 1255 1284 1217 1104 1192 1310 1472 1404 1250 1361 1239 953 1109 1231 1076 932 1014 807 862 843 857 576 542 462
2500 2598 2521 2543 2598 2608 2524 2247 2301 2322 2446 2406 2214 2137 2012 1872 1717 1805 2202 2291 2449 2621 2649 2755 2973 3066 3170 2977 2474 2567 2815 3066 2910 2826 2693 2541 2997 3236 3307 3185 3245 3382 3775 4056 4226 3690 3316 3261 3160 2829 2442 2601 2888 2752 2551 2366 2154 1681 1086 774 707 800 949 1057 1097 979 936 855 960 1194 1030 902 881 973 1043 1013 959 888 781 784 718 918 889 942 512
Wind_Speed
11 12 13 14 14 13 12 11 11 10 10 10 10 10 10 8 8 8 7 6 7 4 3 3 5 6 7 7 8 9 8 8 8 8 8 9 10 8 10 10 9 10 9 10 12 12 13 12 12 11 11 10 8 6 6 6 7 7 7 7 7 7 7 7 8 9 9 10 9 8 8 7 8 9 10 10 11 11 12 12 12 11 11 10 10
13 14 14 13 14 13 13 12 12 11 11 11 10 11 10 9 10 9 7 6 5 3 4 3 5 5 6 7 8 8 8 8 7 7 7 9 10 9 11 10 9 8 9 10 13 16 15 15 14 14 14 11 9 9 8 8 8 9 9 9 9 9 9 8 9 9 9 9 9 8 8 9 8 9 9 10 10 11 11 11 10 10 10 9 9
16 15 14 13 14 13 13 13 13 12 12 11 11 11 11 11 11 9 8 7 6 5 6 5 4 6 6 8 7 8 8 8 7 7 7 8 10 11 9 11 10 12 12 13 15 16 16 14 15 14 13 13 12 12 11 8 9 12 12 11 11 10 10 10 9 10 10 10 10 10 10 10 10 9 9 10 10 11 11 10 9 9 9 9 9
17 16 14 14 14 14 14 14 14 13 12 11 11 12 12 11 11 10 11 11 9 9 9 8 6 7 8 9 8 9 8 8 8 6 7 7 10 11 11 10 11 12 13 12 15 16 12 11 13 13 14 15 14 14 13 9 10 12 12 10 11 13 11 10 11 11 11 11 10 11 10 10 10 10 10 9 10 10 10 9 9 8 9 8 8
16 16 15 15 15 15 15 15 14 13 13 11 10 10 12 12 11 14 14 14 13 12 12 11 10 10 11 10 10 9 8 8 7 7 7 8 10 11 12 12 11 12 12 11 12 13 9 11 12 13 14 15 11 17 14 13 12 14 13 12 11 12 12 11 10 11 11 11 11 11 11 11 10 10 10 9 8 8 9 9 9 8 8 8 8
16 16 15 15 15 15 15 15 14 13 13 10 8 8 13 13 14 17 18 17 15 15 15 13 13 14 14 12 12 11 9 8 8 7 8 9 10 12 12 12 12 11 11 11 11 11 11 11 12 13 14 11 13 14 14 14 14 15 15 13 15 13 13 12 12 11 10 11 12 12 12 12 11 11 10 9 9 9 9 9 9 8 8 8 8
15 15 15 15 15 16 16 14 13 13 13 10 7 6 10 14 16 19 20 19 17 18 18 16 15 16 15 14 13 11 11 9 9 9 9 10 12 11 11 12 12 12 12 12 13 14 13 13 15 15 15 15 14 15 16 16 16 15 14 14 15 15 14 14 13 11 11 11 10 11 11 10 10 10 11 11 9 11 10 9 9 8 7 7 6
14 14 14 15 15 16 16 14 13 12 11 10 8 5 11 15 17 19 21 20 19 19 18 18 17 17 15 15 13 12 11 11 11 11 10 11 12 12 11 11 12 13 14 14 15 13 12 16 17 18 18 18 18 18 17 17 17 16 15 15 15 15 14 15 14 13 12 13 13 13 13 14 13 14 13 13 12 10 9 9 8 7 7 6 5
13 13 14 15 15 15 16 14 13 12 10 10 10 8 10 13 15 19 22 21 21 20 19 18 17 16 16 14 12 12 12 12 13 12 12 13 13 13 12 12 13 15 16 16 16 17 16 17 19 19 19 20 20 19 19 17 17 16 16 15 15 14 14 15 15 14 15 15 15 15 15 15 15 14 13 11 11 9 7 7 7 7 6 6 5
13 13 14 15 15 15 15 13 12 11 11 11 12 12 12 10 14 18 20 20 20 19 18 17 17 16 15 13 12 12 13 14 14 14 15 15 15 14 14 14 15 17 18 18 19 20 21 20 22 23 23 22 21 21 21 21 20 19 18 17 17 16 16 16 16 16 15 15 15 15 15 15 14 12 12 11 10 9 8 8 7 7 6 5 5
13 13 14 15 15 15 15 13 13 12 13 13 12 12 11 13 15 14 15 16 18 18 18 16 15 15 14 12 12 12 14 14 15 16 17 17 16 16 16 17 17 18 20 21 21 21 22 22 22 22 20 18 21 22 22 22 22 22 21 20 19 19 18 18 18 17 16 16 16 15 15 15 14 12 10 10 9 9 9 8 7 7 7 7 7
14 14 15 16 16 15 14 13 13 13 13 15 13 12 11 13 15 13 14 14 13 15 15 14 13 13 13 13 13 13 13 15 16 17 18 18 18 18 18 17 18 19 20 20 21 21 21 21 22 21 21 19 20 21 21 21 21 22 22 22 20 19 19 19 18 17 18 17 16 16 16 15 13 12 11 10 10 10 9 8 8 8 8 9 9
14 14 15 15 16 15 14 14 14 13 14 15 13 11 10 11 13 12 13 15 12 11 12 13 12 12 13 13 14 15 15 15 17 18 18 18 18 18 17 18 18 18 19 19 20 20 21 21 21 20 20 19 20 21 19 18 19 19 20 21 20 19 19 17 16 16 17 17 16 15 14 13 12 11 10 10 10 10 10 9 9 9 10 10 11
14 14 15 16 16 15 15 15 14 14 15 14 13 11 12 12 12 11 12 13 11 11 9 11 10 13 14 14 15 16 17 18 18 17 18 17 18 17 17 18 17 17 17 18 19 20 20 19 19 19 18 18 17 17 17 19 19 17 18 18 18 18 17 17 16 16 17 17 15 15 14 13 12 12 11 11 11 10 9 10 10 11 11 12 14
14 14 15 16 17 15 15 15 15 14 14 14 13 13 14 14 14 14 12 11 10 10 9 13 9 9 10 15 15 17 14 17 17 17 17 17 17 17 16 17 16 16 16 17 17 18 18 17 17 17 17 17 16 16 16 16 15 14 17 17 16 16 16 16 15 15 15 15 15 14 13 13 13 13 12 11 10 9 10 12 13 14 14 15 15
13 14 15 15 16 16 15 15 14 14 14 14 14 14 15 15 15 14 14 14 12 10 10 10 10 8 10 12 13 16 nan 12 15 14 15 16 16 16 15 16 15 15 16 17 16 15 16 16 16 16 16 16 15 15 15 15 14 18 17 16 17 17 16 15 15 15 15 15 14 14 14 14 13 13 12 11 10 10 12 13 14 15 16 16 16
13 13 15 15 14 14 14 14 14 13 13 14 14 15 15 16 16 16 15 16 14 11 10 11 9 10 8 9 10 12 nan 13 nan 13 13 14 14 14 13 15 15 15 16 15 14 15 15 15 15 15 16 16 16 16 16 15 16 15 16 17 14 14 17 17 16 16 16 16 15 15 15 14 14 13 13 12 12 13 13 14 14 16 17 18 18
13 13 14 14 13 13 13 14 14 13 13 14 14 12 13 15 15 16 16 15 15 13 12 10 11 8 8 8 10 nan nan 11 nan 10 10 13 12 12 13 14 12 14 13 14 14 14 14 14 14 14 15 15 15 16 16 15 15 15 14 13 14 14 14 17 17 16 16 16 15 14 15 15 15 15 14 14 14 15 16 17 17 19 19 19 19
14 14 14 14 13 12 13 13 14 14 13 13 13 13 13 12 12 14 15 14 13 14 14 11 9 10 9 9 8 8 10 11 10 10 11 6 9 10 9 10 11 12 12 12 12 12 11 12 13 13 13 13 14 15 16 15 15 16 15 15 16 16 16 16 16 16 16 17 17 16 17 17 18 18 17 16 17 17 17 19 19 20 20 20 21
14 14 15 15 14 13 12 13 13 13 12 12 13 12 11 10 10 11 12 13 13 14 14 13 13 10 8 9 9 8 8 9 9 10 10 11 7 5 6 8 9 9 10 10 11 10 10 10 11 12 12 12 13 15 16 16 16 16 16 17 17 17 17 17 18 18 18 19 19 19 19 18 18 18 19 20 19 19 20 20 20 21 21 21 21
15 16 15 16 15 14 13 13 12 12 11 12 12 11 11 11 10 10 11 11 12 12 12 12 13 12 7 8 8 9 8 8 6 6 8 9 9 6 5 3 5 6 6 7 8 10 10 10 10 11 11 11 13 15 16 16 16 16 17 17 18 18 19 19 18 21 21 20 20 20 19 19 19 20 20 20 21 21 21 20 20 21 21 21 20
15 16 16 17 17 16 15 15 15 13 12 12 11 10 10 10 10 11 11 12 11 11 11 11 10 12 10 8 7 8 9 9 8 8 7 6 9 9 8 7 7 4 3 6 8 9 10 10 11 12 12 12 14 15 15 16 16 16 16 16 18 19 19 18 19 20 20 19 19 19 19 19 19 19 20 20 21 21 21 20 20 20 20 20 20
15 15 16 17 17 18 18 18 17 15 13 13 12 11 10 10 10 10 11 12 11 10 10 10 9 9 9 8 8 9 9 10 10 9 10 9 8 10 9 6 8 9 6 6 7 9 10 11 12 14 14 15 14 14 14 15 16 17 15 16 18 18 18 18 18 18 18 17 18 18 18 18 18 19 19 20 20 20 20 20 20 20 20 20 20
14 15 15 16 16 17 19 19 18 18 17 16 14 13 12 10 10 9 9 10 10 10 10 10 9 9 10 9 9 10 10 11 12 10 10 11 11 11 10 8 8 8 7 7 9 11 12 13 14 15 15 15 15 14 13 14 15 16 17 19 18 18 18 17 18 18 18 18 17 17 18 18 18 18 19 19 20 20 20 20 20 20 20 20 20
12 14 15 15 15 16 16 16 16 17 17 17 16 16 14 13 12 12 11 10 10 10 10 10 9 9 9 10 10 11 11 11 12 13 12 10 10 10 10 8 9 10 7 7 9 9 11 13 13 13 13 13 13 13 13 14 14 15 19 16 19 18 18 18 18 18 18 19 19 19 20 19 17 17 17 19 20 20 20 20 20 21 21 21 21
12 13 14 13 14 14 13 13 13 13 13 14 15 16 16 16 15 15 14 12 11 12 11 11 9 8 8 9 10 10 11 10 9 9 11 10 10 10 9 8 9 11 8 8 8 10 8 8 10 9 11 12 12 12 13 14 14 15 18 15 16 20 19 19 19 19 19 19 19 19 20 21 21 21 21 21 21 21 22 22 22 23 23 24 25
12 12 10 10 10 10 10 10 10 9 9 10 10 12 13 15 16 16 15 14 14 13 12 11 9 8 7 7 9 10 9 8 8 8 9 10 11 10 9 10 11 10 10 8 9 10 12 9 7 9 9 10 11 12 13 13 15 14 15 15 13 18 20 20 20 20 20 20 21 22 22 23 23 24 24 24 23 24 25 25 26 26 26 26 26
10 8 7 7 7 6 6 7 6 6 6 7 7 7 9 11 13 14 15 13 15 16 15 13 11 9 8 7 6 9 7 7 7 8 8 9 9 9 7 8 10 12 11 12 9 9 7 7 6 8 9 10 10 11 12 13 13 13 14 13 13 13 19 20 20 21 21 22 23 24 24 25 25 25 25 26 25 26 27 28 28 29 29 29 29
8 7 6 5 4 4 3 3 3 4 4 5 5 5 5 6 9 10 12 12 13 15 15 14 12 9 7 6 5 6 6 5 5 6 6 6 7 7 7 7 8 11 12 12 11 10 6 7 7 5 8 9 9 9 10 11 12 12 12 13 13 14 16 21 22 22 23 24 25 25 26 26 26 26 27 27 28 28 29 30 31 31 32 31 31
8 7 5 3 3 1 1 0 1 3 3 4 5 5 5 4 5 7 8 9 10 11 13 13 13 10 7 5 4 5 5 5 6 6 4 5 6 6 7 7 7 10 11 13 15 10 10 8 9 7 5 7 8 8 9 10 11 12 13 14 15 16 19 22 24 25 26 27 28 28 28 28 28 28 28 28 29 30 31 32 32 33 33 33 33
7 6 5 3 2 2 1 1 2 3 3 3 4 4 4 3 3 4 5 6 7 8 9 10 11 11 9 8 5 5 5 6 6 5 4 5 6 7 7 7 8 9 11 11 15 10 5 7 6 6 6 6 7 8 9 11 12 15 15 16 17 20 19 20 23 25 27 28 29 29 30 31 31 31 31 30 30 31 32 33 34 34 35 35 35
7 6 5 4 3 2 2 2 2 2 3 4 4 5 5 3 2 2 2 4 4 5 5 5 6 8 9 9 7 5 4 5 6 6 6 6 7 8 8 8 9 9 9 11 12 15 8 9 9 8 9 9 9 10 11 11 13 18 17 17 18 18 19 20 25 29 29 29 29 29 30 31 nan nan nan nan nan 33 34 35 36 37 36 36 36
8 7 6 5 4 4 2 3 2 2 2 3 4 5 5 3 2 1 1 1 2 3 2 3 4 6 8 8 8 7 5 5 6 7 7 6 7 8 8 8 9 8 8 9 12 15 11 9 9 10 8 8 10 12 13 13 14 16 18 18 18 19 20 21 22 29 32 nan nan nan nan nan nan nan nan nan nan nan nan 37 37 39 39 38 37
10 8 7 6 6 5 3 2 3 2 2 3 4 6 6 5 4 3 2 1 1 3 2 2 3 2 3 6 7 7 5 6 7 7 7 7 7 8 7 8 8 8 7 9 10 11 14 8 8 9 9 11 11 13 14 12 11 14 17 19 19 21 21 22 23 24 32 34 nan nan nan nan nan nan nan nan nan nan nan nan nan nan nan nan nan
12 10 8 6 7 6 5 4 4 3 2 2 3 4 6 6 6 5 5 4 1 1 0 1 1 1 2 3 5 4 3 4 5 7 7 7 7 8 9 8 8 8 6 8 9 11 12 10 8 9 9 11 13 11 12 13 14 15 16 18 20 22 24 25 25 25 30 35 36 nan nan nan nan nan nan nan nan nan nan nan nan nan nan nan nan
13 12 9 8 8 8 7 6 5 4 3 3 3 5 6 7 7 6 6 5 3 2 1 0 1 2 2 2 2 2 2 4 4 4 5 5 5 6 8 8 7 7 6 6 9 10 9 10 9 9 8 9 9 11 11 12 12 14 16 16 20 22 23 25 26 27 29 34 36 36 36 nan nan nan nan nan nan nan nan nan nan nan nan nan nan
12 13 12 10 9 9 8 6 5 4 3 3 4 4 5 6 7 7 6 6 4 3 2 1 2 2 2 2 2 2 1 3 4 3 4 4 4 5 6 7 6 5 4 5 8 8 9 10 8 8 8 8 8 10 12 11 12 15 18 20 21 22 24 24 24 26 28 31 32 34 nan nan nan nan nan nan nan nan nan nan nan nan nan nan nan
13 13 12 12 11 10 8 7 5 5 5 4 4 4 4 6 7 7 7 7 5 4 3 2 3 3 2 2 2 2 2 1 1 3 4 7 7 4 5 6 6 4 4 6 8 9 8 8 7 5 8 9 9 13 16 18 17 16 18 20 22 25 26 25 25 27 30 31 33 37 40 43 45 nan nan nan nan nan nan nan nan nan nan nan nan
13 13 12 11 12 11 9 7 5 5 5 5 5 5 5 5 6 7 7 7 7 6 5 4 4 3 2 2 2 3 3 3 1 1 3 4 7 5 3 4 5 5 5 7 8 8 8 6 5 4 4 8 12 12 16 21 22 22 19 17 19 23 27 30 30 32 35 36 38 41 41 41 41 40 42 45 nan nan nan nan nan nan nan nan nan
13 13 12 12 12 11 9 7 6 6 6 5 6 6 5 5 6 7 7 7 7 6 6 5 4 3 3 2 2 3 4 4 3 1 2 4 6 8 6 5 5 6 7 6 7 6 5 5 4 3 6 8 12 15 18 23 21 21 24 23 22 23 28 31 32 31 33 37 36 35 37 39 37 37 37 40 43 43 nan nan nan nan nan nan nan
17 15 14 13 12 11 9 8 7 7 6 5 7 8 7 6 6 6 7 7 6 6 5 5 5 5 4 3 3 3 4 6 5 3 2 5 7 7 6 5 4 5 6 6 5 5 5 7 7 8 8 10 15 19 20 23 24 22 23 27 26 27 26 24 27 34 35 35 34 33 34 38 40 40 41 41 43 46 45 45 nan nan nan nan nan
17 17 15 14 12 11 10 9 9 8 7 7 8 10 10 8 7 7 8 7 6 5 5 5 5 5 5 5 4 3 5 7 7 4 2 1 2 4 4 1 2 3 4 4 5 6 7 9 11 13 13 12 15 22 23 24 26 26 25 27 26 25 26 26 27 36 41 41 39 38 40 44 45 43 42 41 43 46 43 44 45 44 nan nan nan
16 17 16 13 12 11 10 10 9 8 7 7 9 13 12 10 8 7 7 7 6 5 4 4 5 5 6 6 6 5 6 7 5 4 2 2 3 4 5 6 6 6 4 4 6 9 11 11 12 15 17 15 18 22 26 26 28 29 29 29 27 28 30 29 26 31 46 48 45 42 38 46 49 45 42 41 43 44 43 43 46 48 46 45 nan
18 17 15 13 12 12 12 9 8 8 7 8 12 13 13 13 11 8 7 7 6 5 4 4 4 5 6 7 7 8 8 8 8 7 4 3 3 4 6 8 11 11 11 9 8 10 13 14 16 16 17 21 24 28 29 29 28 28 33 34 36 34 32 33 34 33 41 50 46 43 37 40 52 47 40 40 43 43 42 42 44 46 47 48 47
18 16 14 13 13 13 11 9 7 7 7 10 14 14 14 14 13 11 7 6 5 5 4 4 3 5 7 8 8 8 10 11 9 6 6 6 7 8 9 10 12 16 17 18 19 19 17 18 18 18 23 23 25 29 31 29 29 28 29 34 39 37 35 34 34 34 38 51 47 44 38 34 42 41 37 35 39 40 40 43 45 45 47 48 48
17 15 14 12 13 13 11 9 8 8 7 11 15 15 15 15 15 14 8 6 5 4 3 3 4 4 5 7 8 8 9 9 8 7 7 7 7 9 9 11 13 18 22 23 24 26 26 20 19 19 21 25 24 29 36 37 36 34 33 36 37 34 32 33 32 32 34 46 49 44 35 30 34 33 30 29 34 36 38 38 42 45 45 46 47
16 15 14 13 13 12 10 9 9 8 8 10 16 17 16 17 17 16 10 8 5 4 3 2 2 3 4 6 7 7 8 8 9 9 7 8 9 8 5 6 12 14 19 23 24 23 21 21 22 22 21 23 23 25 32 37 42 41 39 38 40 40 38 34 32 34 35 43 50 51 36 30 33 31 28 29 32 35 35 36 40 42 44 45 47
16 16 15 14 13 12 10 9 8 7 9 13 16 17 18 17 19 16 12 9 7 5 4 4 4 5 5 5 6 7 8 7 9 14 13 12 11 10 8 8 9 12 16 22 29 31 28 27 29 29 31 31 28 30 35 36 36 37 37 37 38 40 39 37 35 33 32 34 47 48 36 26 29 27 24 27 29 31 33 34 38 45 46 47 48
16 15 14 14 14 13 11 10 8 9 11 15 18 18 19 20 20 15 13 11 9 7 5 5 6 5 6 6 7 8 8 8 10 17 18 20 15 14 14 11 10 13 14 22 32 35 35 34 33 33 32 33 33 34 36 39 41 38 36 35 37 39 39 38 39 39 37 33 37 41 35 27 27 26 21 22 23 24 28 30 31 39 47 47 49
13 13 14 14 13 13 11 10 10 11 11 17 22 20 21 23 20 15 14 12 9 9 8 8 8 8 6 7 7 7 7 7 10 17 23 26 21 20 19 16 13 14 17 22 29 26 29 26 27 30 35 36 33 31 31 35 42 48 46 44 42 40 41 42 41 40 36 33 33 39 35 30 27 29 26 24 25 29 29 30 32 33 41 47 50
12 14 14 13 12 13 11 10 12 11 12 17 24 22 24 25 20 15 14 12 10 10 10 9 10 10 9 10 10 8 6 6 9 16 25 28 24 22 23 21 17 16 21 25 28 27 28 30 30 32 32 33 34 34 34 35 42 52 53 50 44 44 43 43 42 39 36 37 37 43 38 31 28 30 30 26 24 27 30 29 31 35 37 42 48
Wind_Direction
110 114 117 117 116 115 111 109 108 106 103 102 101 100 99 107 105 98 99 93 83 87 93 98 99 104 111 109 102 103 102 99 102 98 101 97 88 64 59 52 71 81 95 107 102 92 86 81 82 81 79 80 80 82 83 81 75 74 75 77 80 77 72 71 68 70 55 58 61 61 61 62 62 66 73 80 87 95 103 102 105 107 107 107 105
113 116 115 116 115 112 109 107 108 105 103 99 94 92 98 108 105 98 97 95 87 82 92 103 109 118 118 116 109 106 103 102 102 102 98 94 88 75 59 61 57 72 77 78 80 85 83 78 80 77 78 83 82 86 81 85 90 80 81 82 79 77 73 74 74 72 76 66 67 68 68 65 66 71 79 85 93 98 101 104 100 99 99 99 98
117 115 114 114 111 110 109 109 106 107 102 97 90 93 105 111 108 103 97 90 82 83 87 92 108 117 122 117 113 108 106 105 104 99 94 94 88 81 67 62 52 55 58 65 68 75 77 80 80 84 89 87 83 80 83 75 83 92 88 84 81 71 75 69 71 75 73 72 72 72 74 71 73 78 83 89 95 100 102 99 100 98 98 98 93
116 114 112 110 109 108 109 110 112 108 101 95 91 96 112 114 111 103 98 91 84 79 82 89 104 119 122 118 115 111 108 107 104 112 110 95 86 77 74 64 53 48 53 60 61 65 77 74 74 79 85 84 88 87 83 76 75 84 87 86 95 98 78 71 67 68 70 68 67 72 74 76 76 80 84 87 93 97 99 95 95 96 98 93 90
114 111 110 107 107 107 109 113 113 107 96 88 86 103 118 115 111 103 93 87 87 81 79 84 98 110 116 117 116 113 110 105 108 101 100 90 81 77 72 70 62 46 53 60 61 68 64 60 66 72 79 85 79 83 81 81 73 75 81 80 71 80 82 82 84 80 69 66 67 67 69 71 74 76 84 86 86 87 91 95 90 89 92 91 92
109 109 107 104 103 105 110 114 115 110 100 91 88 107 111 118 109 99 93 85 86 86 85 87 94 103 108 115 110 112 109 107 101 100 96 94 88 80 75 72 71 67 59 51 73 79 76 71 72 77 75 68 71 67 71 71 70 69 68 66 70 65 70 70 64 67 79 81 71 68 71 72 74 77 79 85 76 79 82 81 88 89 85 86 87
104 105 103 102 102 104 110 115 118 112 104 99 98 92 103 106 102 92 89 86 87 90 90 92 98 103 109 111 111 110 108 106 99 92 91 95 91 86 84 81 81 79 74 71 55 61 72 70 69 69 69 76 62 61 60 58 60 63 65 67 64 64 60 62 59 55 59 65 71 74 74 72 74 72 72 71 74 80 79 85 96 87 81 84 86
100 99 100 100 102 106 112 118 120 113 107 105 104 106 106 104 104 95 94 93 91 88 91 95 98 107 111 110 109 107 104 103 96 93 93 90 89 85 84 87 87 87 85 79 77 68 62 74 72 71 70 66 65 60 63 58 58 61 65 61 60 58 58 55 57 58 56 60 65 70 74 77 77 78 78 79 79 76 77 78 78 79 77 76 77
99 98 99 100 102 106 111 118 120 115 108 106 107 101 99 113 108 97 90 89 87 88 92 98 103 107 109 111 112 110 108 104 100 98 95 92 86 83 81 83 85 82 79 78 78 79 64 69 79 80 75 73 71 66 62 62 62 63 61 63 64 62 62 61 61 61 63 67 68 69 72 75 78 78 78 77 73 74 74 71 62 57 54 54 47
101 100 101 102 105 108 113 115 113 107 103 101 104 107 111 112 100 89 87 90 89 88 89 91 96 101 104 108 111 111 108 105 104 101 99 95 90 91 90 88 84 84 84 83 82 80 80 71 69 75 75 77 73 72 70 65 63 66 67 67 68 69 65 65 63 63 66 66 68 72 74 74 73 73 72 73 65 50 45 37 36 32 31 15 360
103 100 101 103 105 107 109 108 104 99 96 97 96 96 105 114 112 105 98 98 96 96 92 86 86 90 94 102 105 109 107 106 104 104 103 102 101 97 94 91 89 86 84 83 80 78 79 80 79 77 70 63 76 73 71 69 67 62 64 66 67 65 68 68 66 62 64 65 68 71 71 69 67 66 60 57 51 35 24 21 19 14 360 348 347
108 105 103 105 108 108 107 103 100 98 99 101 101 98 99 107 111 116 112 103 98 94 85 82 88 95 98 101 107 105 104 104 103 102 101 100 100 101 99 94 91 90 86 83 81 80 78 77 75 73 72 57 59 71 69 70 66 62 61 61 63 65 64 63 63 60 60 61 61 60 60 62 61 58 56 48 36 27 23 17 5 360 350 342 336
113 110 106 106 109 111 110 107 103 103 104 104 106 109 99 100 107 115 123 112 106 100 93 89 88 94 101 105 106 109 105 103 103 102 101 102 102 100 99 97 94 91 88 86 83 81 77 74 72 70 67 65 54 46 57 63 61 58 57 58 57 54 54 57 58 55 53 53 52 51 52 56 58 53 45 38 31 22 14 7 357 352 344 340 333
116 111 109 106 107 110 110 108 107 108 108 109 106 102 95 96 98 107 104 110 117 110 105 97 96 100 97 101 104 105 109 105 102 101 103 103 104 101 99 98 96 92 88 86 82 78 75 71 69 68 65 61 57 56 51 46 42 41 52 52 52 55 53 50 47 46 45 48 47 46 46 45 48 45 38 33 19 15 10 359 359 350 349 345 339
113 109 108 104 104 108 110 111 110 112 110 106 104 101 99 98 98 106 111 113 120 117 108 114 104 108 113 106 109 108 103 103 104 106 107 107 107 105 104 101 98 96 92 86 81 78 76 73 69 65 61 58 55 50 47 44 44 42 42 42 45 47 52 55 53 51 49 49 49 47 38 33 33 34 31 22 13 11 8 358 358 357 351 351 347
108 103 104 102 100 102 108 111 111 113 114 112 108 104 102 101 100 100 105 110 110 112 108 119 110 94 102 114 117 114 nan 112 111 109 108 110 108 107 103 101 98 94 90 85 82 78 74 70 65 62 57 54 51 45 44 42 30 37 41 44 39 37 46 52 57 59 54 50 45 38 29 28 29 31 31 24 21 7 0 1 1 1 2 358 354
106 99 99 97 97 100 102 107 110 113 116 116 113 109 105 105 103 102 102 114 115 110 106 107 112 120 113 103 106 105 nan 126 nan 112 108 106 104 104 102 98 97 91 88 85 79 73 68 62 57 53 49 47 43 41 40 36 33 31 32 34 41 41 42 48 53 56 53 46 43 38 31 26 31 32 33 32 26 22 12 9 10 8 7 5 1
103 99 95 97 94 94 96 100 105 109 113 116 118 115 109 106 104 106 106 106 115 109 101 101 107 101 110 119 122 nan nan 127 nan 123 115 109 110 106 101 99 92 85 80 76 68 64 55 54 44 44 41 42 41 41 40 38 38 38 40 37 38 53 59 45 49 53 57 54 52 39 38 37 39 36 37 37 30 23 20 15 12 10 8 6 2
101 97 95 94 95 94 94 95 100 104 108 111 111 107 108 107 108 105 107 111 107 105 100 99 102 96 89 91 103 110 116 116 128 128 125 121 108 102 91 84 80 77 76 76 73 63 56 49 45 40 35 38 42 44 47 48 47 53 55 57 54 55 58 44 43 53 59 60 59 55 51 48 36 37 38 30 28 24 21 17 14 11 9 7 5
101 97 95 93 92 91 91 93 95 99 103 104 106 108 113 115 112 110 109 106 103 104 103 103 98 98 93 93 92 101 111 111 115 125 127 125 118 105 92 85 80 79 79 77 77 73 70 56 53 37 36 40 46 52 58 59 61 59 57 46 53 56 58 60 54 59 62 62 61 62 57 48 44 36 28 27 25 22 20 20 18 15 14 11 8
101 98 95 93 90 89 86 88 90 92 96 100 102 104 103 106 105 105 104 104 104 103 103 103 102 102 104 102 107 107 108 113 120 107 111 120 121 126 126 106 90 84 82 82 76 75 70 62 57 56 51 55 57 61 65 65 62 61 60 45 53 54 58 58 57 63 63 61 60 58 54 45 39 35 30 28 25 24 23 22 20 18 17 15 12
105 101 100 95 92 88 85 81 82 84 88 93 95 99 101 103 101 103 107 107 109 105 102 104 103 111 113 119 115 114 113 110 104 102 103 96 108 124 135 137 133 131 98 87 86 81 76 69 62 61 64 67 66 65 67 65 63 62 59 45 51 54 57 56 54 60 59 55 53 51 48 40 35 34 33 30 26 24 24 22 20 18 17 15 12
110 107 101 98 95 91 87 83 81 81 81 84 86 90 92 95 100 100 103 106 110 107 106 107 108 109 109 113 112 111 112 113 118 122 117 112 110 115 117 125 133 129 109 107 93 84 78 74 75 79 78 77 72 69 66 65 61 60 59 47 50 52 52 51 50 50 50 48 48 46 44 42 37 33 32 29 26 24 22 19 17 16 15 13 10
116 114 108 101 101 97 90 87 83 79 77 78 81 84 88 90 93 97 101 101 108 109 109 108 102 110 107 110 111 115 117 113 116 116 112 114 117 116 119 119 108 95 96 89 81 81 80 81 79 80 75 76 73 70 66 63 62 51 52 48 46 46 45 47 46 44 41 40 39 42 44 41 39 34 31 28 25 22 19 17 14 12 12 10 7
116 111 107 99 101 96 90 86 84 79 78 76 76 75 78 80 81 82 87 91 98 99 104 102 101 107 112 114 117 117 118 117 117 116 117 114 107 108 111 115 105 104 94 103 101 96 90 87 83 79 75 71 71 65 64 63 64 40 40 51 37 42 41 43 43 43 41 38 35 35 39 37 34 31 26 25 24 21 18 15 12 11 10 8 5
104 101 104 98 97 94 89 84 81 76 72 72 73 73 71 75 74 74 74 78 85 88 95 100 103 101 114 121 119 119 120 121 120 117 114 110 103 99 107 103 99 104 101 95 87 101 92 81 81 73 70 66 64 61 58 59 57 33 29 47 32 33 36 37 40 41 40 39 35 31 32 32 31 30 26 21 21 19 16 14 13 12 11 9 7
107 109 107 101 96 95 88 84 78 71 67 66 69 69 70 73 76 73 73 72 74 77 84 89 98 101 105 114 122 122 125 128 123 117 117 112 109 105 105 112 116 114 112 103 96 86 100 106 87 70 60 56 55 53 50 50 54 35 24 37 49 29 30 31 34 34 35 35 33 31 29 27 27 27 25 22 16 16 15 12 11 10 10 8 8
121 120 113 107 99 93 86 76 72 60 53 50 51 61 61 69 74 73 69 67 67 66 71 77 85 94 106 119 128 120 123 120 121 119 112 108 106 104 100 105 119 127 130 123 117 111 91 89 76 71 61 55 53 53 55 56 55 35 24 43 42 36 23 28 28 28 28 28 28 27 26 25 23 23 22 20 16 12 11 9 8 6 6 7 8
142 142 133 126 119 107 94 76 49 42 34 27 27 33 40 53 69 70 69 64 60 63 64 66 74 82 98 103 123 131 129 132 129 121 116 113 106 107 107 110 118 121 128 126 122 123 105 77 95 50 57 53 53 52 48 47 51 42 38 33 35 35 20 18 23 23 23 24 23 23 22 21 20 20 19 17 15 12 9 7 6 6 7 6 7
160 164 164 149 152 150 129 97 18 7 9 4 3 1 10 40 59 65 69 64 60 61 60 62 64 63 70 93 114 130 136 132 122 117 117 110 112 109 111 110 108 108 116 120 121 114 105 86 76 65 39 53 45 42 41 42 41 32 36 32 29 27 25 15 17 19 20 20 20 19 18 16 16 15 15 14 13 10 8 6 5 5 6 6 5
183 187 190 175 189 230 254 288 294 329 330 339 331 341 359 12 45 58 59 58 60 63 61 59 58 53 45 58 79 111 128 129 132 126 120 114 113 116 116 115 106 102 107 111 114 114 90 99 84 73 69 50 57 55 40 32 26 23 23 22 20 24 20 17 18 18 19 18 18 17 15 13 12 10 10 10 9 8 8 6 4 4 6 5 4
190 202 202 200 217 247 274 305 324 321 324 321 322 324 322 340 17 38 33 45 56 62 65 52 47 44 36 44 51 78 107 128 126 122 120 117 117 117 114 111 105 100 101 99 94 96 80 82 80 68 65 60 38 44 40 28 14 5 13 9 12 11 8 14 18 17 18 19 19 17 15 13 nan nan nan nan nan 8 8 6 4 3 4 5 4
207 214 221 224 235 249 264 276 307 304 311 308 301 303 308 327 346 3 37 31 57 79 74 66 48 43 47 41 42 52 66 96 114 117 115 110 109 109 107 103 97 88 79 79 83 90 83 52 56 61 50 34 48 25 28 21 11 0 1 4 6 4 6 8 10 10 13 nan nan nan nan nan nan nan nan nan nan nan nan 7 5 2 1 1 1
214 218 226 227 235 248 253 263 273 288 289 306 305 295 305 317 327 294 300 338 44 93 113 94 75 52 27 55 53 42 45 75 97 106 114 110 105 104 96 90 88 82 60 69 75 80 90 66 55 35 40 15 26 18 19 22 18 357 355 353 353 0 3 6 6 5 5 9 nan nan nan nan nan nan nan nan nan nan nan nan nan nan nan nan nan
215 219 223 224 233 242 240 238 251 260 272 285 292 296 302 314 316 307 292 295 324 123 65 55 88 288 3 39 51 50 72 76 88 105 115 116 114 107 100 96 88 84 68 52 69 76 81 78 54 59 39 13 13 16 9 4 359 356 356 354 354 355 356 1 3 3 1 0 3 nan nan nan nan nan nan nan nan nan nan nan nan nan nan nan nan
216 224 222 223 230 237 236 236 240 248 259 272 287 301 311 312 306 305 299 297 290 272 270 310 222 268 325 4 39 30 82 107 115 127 130 127 122 114 106 100 93 89 84 59 50 64 65 69 52 43 37 19 10 359 351 354 358 353 351 352 354 358 358 356 358 360 358 356 355 355 355 nan nan nan nan nan nan nan nan nan nan nan nan nan nan
215 223 225 224 226 231 231 233 236 250 268 286 301 313 308 300 301 297 293 290 291 281 274 245 232 255 299 353 29 355 335 127 140 158 161 129 131 123 112 108 101 98 83 62 58 48 52 53 50 18 10 9 3 352 343 348 350 349 348 351 358 359 354 357 357 356 357 352 347 347 nan nan nan nan nan nan nan nan nan nan nan nan nan nan nan
220 222 227 226 227 231 232 230 235 248 265 283 298 310 314 298 291 291 286 285 282 274 268 252 245 264 286 329 332 323 301 335 182 183 174 141 139 129 109 110 114 113 83 70 60 50 44 53 45 34 345 349 352 345 335 335 343 345 342 346 351 349 348 353 357 350 340 333 330 335 344 347 350 nan nan nan nan nan nan nan nan nan nan nan nan
223 224 226 229 229 232 234 235 241 254 270 286 292 299 301 296 292 288 285 285 281 271 266 259 244 252 269 273 283 288 288 300 288 191 182 159 149 137 128 118 116 108 90 73 58 46 32 35 42 17 351 335 338 342 329 330 337 337 336 344 354 347 346 352 352 343 337 336 342 349 348 342 342 345 355 3 nan nan nan nan nan nan nan nan nan
223 224 228 234 235 236 236 240 250 259 273 285 293 293 292 297 293 289 286 284 284 280 275 269 261 250 252 241 236 260 277 288 300 269 191 175 175 156 161 148 125 114 102 76 70 64 45 29 20 355 330 331 327 328 321 320 324 326 331 344 3 356 350 353 352 342 335 336 342 344 345 344 345 350 353 353 354 354 nan nan nan nan nan nan nan
224 225 228 233 239 241 242 246 256 268 275 283 277 282 290 304 305 297 292 293 290 284 275 271 267 262 253 249 241 254 276 294 312 294 212 197 173 168 166 159 122 99 85 71 58 40 23 5 348 330 338 341 330 319 317 314 320 329 323 332 347 351 357 6 359 341 340 340 339 342 345 339 336 338 339 340 339 342 345 350 nan nan nan nan nan
228 228 229 233 238 245 250 255 262 267 271 262 278 305 299 293 302 291 285 287 293 292 282 265 258 255 253 248 243 269 285 296 303 311 324 104 102 131 172 205 66 48 42 29 6 357 358 353 340 329 337 340 324 320 320 324 328 333 333 330 341 355 360 7 7 347 336 335 337 342 345 336 333 334 335 336 332 330 329 331 332 336 nan nan nan
232 233 235 237 237 238 245 255 269 271 267 261 292 299 313 321 305 291 287 284 290 301 297 273 253 244 238 243 235 251 275 275 274 289 295 10 44 59 56 30 10 15 15 355 342 342 347 354 345 335 335 336 330 328 330 336 341 345 342 334 345 356 357 357 5 343 330 332 334 336 339 332 327 327 328 331 329 326 326 330 335 338 341 338 nan
236 237 237 238 233 232 235 247 263 266 263 275 293 302 311 321 317 300 285 280 288 302 300 287 259 242 232 230 236 232 234 243 243 254 285 354 14 24 30 18 1 356 351 352 352 355 1 354 347 341 328 331 335 334 334 337 339 346 347 345 346 351 355 357 355 354 332 330 331 332 340 333 322 323 326 330 326 325 330 335 337 337 337 337 336
234 238 237 239 238 239 241 247 253 259 256 280 298 305 309 314 320 311 288 286 294 305 303 296 267 240 229 229 226 230 229 263 262 233 225 257 315 4 17 9 355 344 347 358 6 6 6 353 335 320 316 327 340 331 327 333 339 353 351 346 341 346 353 356 357 354 337 327 327 333 343 341 322 322 330 334 327 326 332 338 341 339 336 335 336
240 240 244 242 239 243 249 251 247 248 260 275 299 305 306 310 314 304 294 306 314 320 319 289 254 237 230 229 228 226 234 238 227 232 255 275 276 296 317 326 329 334 341 354 4 19 20 357 329 320 322 327 345 325 324 335 345 349 351 346 343 349 358 5 359 355 350 334 334 337 346 348 331 328 337 337 325 325 329 335 336 335 334 333 334
244 246 245 244 240 244 251 254 250 250 257 278 290 302 305 308 309 301 291 300 307 313 307 292 266 249 240 238 232 223 227 232 235 256 261 271 284 292 312 337 331 327 328 335 340 347 356 350 344 329 338 352 357 347 349 348 346 349 352 349 343 344 350 358 358 3 2 347 341 336 345 345 335 332 340 337 326 325 328 333 337 334 330 332 335
238 241 241 239 241 245 249 251 249 251 254 282 289 295 301 302 303 289 290 295 304 306 298 292 279 270 270 260 237 224 225 229 264 296 299 294 296 306 317 333 331 320 319 330 338 341 346 342 336 340 350 359 357 1 355 350 348 346 343 342 338 340 349 352 356 354 356 346 333 330 333 342 335 331 337 334 326 327 331 332 332 331 335 336 335
242 243 241 243 241 243 248 250 252 249 251 274 289 293 295 299 290 282 285 285 291 303 300 292 287 290 284 274 260 236 234 244 279 302 309 306 308 315 319 329 328 318 318 313 330 343 350 348 343 343 356 4 9 9 4 349 341 336 337 342 346 345 346 353 355 354 360 354 339 326 327 340 333 328 338 334 328 334 335 333 328 328 333 336 334
243 241 241 240 244 248 255 259 261 260 261 273 289 292 295 297 296 285 279 282 288 289 286 288 285 280 284 299 274 249 240 256 284 302 306 302 308 315 315 322 328 328 322 317 312 327 337 333 328 343 358 2 3 5 358 347 338 331 336 343 345 341 346 349 354 355 360 1 349 327 330 339 334 333 339 336 336 339 343 337 334 333 331 332 334
238 238 241 244 250 255 263 269 271 275 264 271 289 294 297 299 297 280 278 275 279 280 276 279 284 279 276 281 300 289 269 267 288 295 300 302 305 310 311 312 322 325 319 309 311 313 312 316 328 342 344 343 343 341 339 340 337 335 337 342 341 342 346 348 349 350 357 355 341 329 334 337 333 335 332 329 341 341 336 335 336 332 331 323 318